ZHONGXING-2A

Last updated on Thu Nov 21 2024 00:02:42 GMT+0000 (Coordinated Universal Time)

1 38352U 12028A 24325.54938049 -.00000291 00000+0 00000+0 0 9993 2 38352 0.0115 358.2500 0002270 258.6064 99.2220 1.00268921 45546
UTC large
Height (km)
Speed (km/s)
/
Latitude / Longitude
Inclination (degrees)
Orbital Period (minutes)
Azimuth
Elevation
Range (km)
Doppler Factor

Next 0 passes for location: London (51.5072 / 0.1276)

Sorry there are no passes over London.